When you browse on this site, cookies collect data to enhance your experience and personalize the content and advertising you see.
Visit our Privacy Policy to learn more. By continuing to use the site, you agree to this use of cookies and data.
  • en Suisse
  • Liste des pays
  • À 7 jours
  • Température de l'eau
  • Carte météo
  • Widgets météo
  • user-avatar
    Se connecter

    Météo par heure à Milford

    Ce jour, 11 Décembre, Mercredi

    Heure Température Précipitation Vent Pression Humidité
    00:00 +2°C° 0.8 mm 7 m/s 765 mmHg 86%
    01:00 +1°C° 0.8 mm 6 m/s 765 mmHg 89%
    02:00 -1°C° 0.9 mm 6 m/s 766 mmHg 90%
    03:00 -1°C° 0.9 mm 6 m/s 766 mmHg 90%
    04:00 -1°C° 0.9 mm 5 m/s 766 mmHg 91%
    05:00 -1°C° 1 mm 5 m/s 767 mmHg 92%
    06:00 -2°C° 1 mm 6 m/s 767 mmHg 92%
    07:00 -2°C° 1 mm 6 m/s 768 mmHg 92%
    08:00 -2°C° 0.5 mm 6 m/s 768 mmHg 91%
    09:00 -2°C° 0.5 mm 6 m/s 769 mmHg 91%
    10:00 -1°C° 0.5 mm 5 m/s 770 mmHg 90%
    11:00 -1°C° 0 mm 5 m/s 770 mmHg 83%
    12:00 0°C° 0 mm 5 m/s 769 mmHg 76%
    13:00 0°C° 0 mm 5 m/s 769 mmHg 69%
    14:00 0°C° 0 mm 5 m/s 769 mmHg 70%
    15:00 0°C° 0 mm 5 m/s 769 mmHg 71%
    16:00 -1°C° 0 mm 5 m/s 770 mmHg 72%
    17:00 -1°C° 0 mm 4 m/s 770 mmHg 73%
    18:00 -2°C° 0 mm 4 m/s 771 mmHg 75%
    19:00 -2°C° 0 mm 4 m/s 772 mmHg 77%
    20:00 -2°C° 0 mm 5 m/s 773 mmHg 75%
    21:00 -2°C° 0 mm 5 m/s 773 mmHg 73%
    22:00 -3°C° 0 mm 6 m/s 774 mmHg 71%
    23:00 -4°C° 0 mm 6 m/s 774 mmHg 71%

    Demain, 12 Décembre, Jeudi

    Heure Température Précipitation Vent Pression Humidité
    00:00 -4°C° 0 mm 6 m/s 775 mmHg 71%
    01:00 -4°C° 0 mm 6 m/s 776 mmHg 72%
    02:00 -5°C° 0 mm 5 m/s 776 mmHg 71%
    03:00 -5°C° 0 mm 5 m/s 776 mmHg 71%
    04:00 -5°C° 0 mm 5 m/s 776 mmHg 70%
    05:00 -4°C° 0 mm 4 m/s 777 mmHg 70%
    06:00 -4°C° 0 mm 4 m/s 778 mmHg 69%
    07:00 -4°C° 0 mm 3 m/s 778 mmHg 68%
    08:00 -4°C° 0 mm 3 m/s 779 mmHg 64%
    09:00 -2°C° 0 mm 3 m/s 779 mmHg 59%
    10:00 -1°C° 0 mm 3 m/s 779 mmHg 54%
    11:00 +1°C° 0 mm 2 m/s 779 mmHg 52%
    12:00 +2°C° 0 mm 2 m/s 779 mmHg 49%
    13:00 +2°C° 0 mm 2 m/s 778 mmHg 47%
    14:00 +2°C° 0 mm 2 m/s 778 mmHg 50%
    15:00 +2°C° 0 mm 2 m/s 778 mmHg 52%
    16:00 +1°C° 0 mm 2 m/s 777 mmHg 55%
    17:00 +1°C° 0 mm 2 m/s 777 mmHg 59%
    18:00 -1°C° 0 mm 2 m/s 777 mmHg 63%
    19:00 -1°C° 0 mm 2 m/s 777 mmHg 66%
    20:00 -1°C° 0 mm 2 m/s 777 mmHg 69%
    21:00 -1°C° 0 mm 2 m/s 776 mmHg 71%
    22:00 +2°C° 0 mm 1 m/s 776 mmHg 74%
    23:00 +2°C° 0 mm 1 m/s 775 mmHg 74%

    Après-demain, 13 Décembre, Vendredi

    Heure Température Précipitation Vent Pression Humidité
    00:00 +3°C° 0 mm 1 m/s 775 mmHg 74%
    01:00 +4°C° 0 mm 1 m/s 774 mmHg 74%
    02:00 +4°C° 0 mm 1 m/s 774 mmHg 76%
    03:00 +4°C° 0 mm 1 m/s 773 mmHg 79%
    04:00 +5°C° 0 mm 1 m/s 772 mmHg 82%
    05:00 +5°C° 0 mm 1 m/s 772 mmHg 85%
    06:00 +5°C° 0 mm 1 m/s 772 mmHg 87%
    07:00 +5°C° 0 mm 1 m/s 771 mmHg 89%
    08:00 +7°C° 0 mm 1 m/s 771 mmHg 88%
    09:00 +8°C° 0 mm 1 m/s 770 mmHg 87%
    10:00 +9°C° 0 mm 1 m/s 770 mmHg 86%
    11:00 +9°C° 0 mm 2 m/s 769 mmHg 85%
    12:00 +11°C° 0 mm 3 m/s 768 mmHg 84%
    13:00 +12°C° 0 mm 4 m/s 768 mmHg 84%
    14:00 +11°C° 0 mm 3 m/s 767 mmHg 87%
    15:00 +10°C° 0 mm 3 m/s 766 mmHg 91%
    16:00 +9°C° 0 mm 2 m/s 765 mmHg 94%
    17:00 +9°C° 0 mm 2 m/s 765 mmHg 94%
    18:00 +9°C° 0 mm 2 m/s 764 mmHg 94%
    19:00 +9°C° 0 mm 2 m/s 764 mmHg 94%
    20:00 +10°C° 0.1 mm 3 m/s 763 mmHg 95%
    21:00 +10°C° 0.1 mm 3 m/s 762 mmHg 96%
    22:00 +10°C° 0.1 mm 3 m/s 761 mmHg 97%
    23:00 +10°C° 0.9 mm 4 m/s 759 mmHg 97%

    14 Décembre, Samedi

    Heure Température Précipitation Vent Pression Humidité
    00:00 +11°C° 0.9 mm 4 m/s 758 mmHg 98%
    01:00 +11°C° 0.9 mm 4 m/s 756 mmHg 98%
    02:00 +10°C° 2.7 mm 5 m/s 754 mmHg 98%
    03:00 +12°C° 2.7 mm 5 m/s 753 mmHg 98%
    04:00 +12°C° 2.7 mm 5 m/s 751 mmHg 98%
    05:00 +12°C° 0.3 mm 4 m/s 751 mmHg 98%
    06:00 +12°C° 0.3 mm 3 m/s 750 mmHg 98%
    07:00 +13°C° 0.3 mm 2 m/s 749 mmHg 99%
    08:00 +13°C° 0 mm 2 m/s 749 mmHg 98%
    09:00 +13°C° 0 mm 2 m/s 749 mmHg 97%
    10:00 +13°C° 0 mm 2 m/s 749 mmHg 96%
    11:00 +12°C° 0 mm 4 m/s 749 mmHg 95%
    12:00 +10°C° 0 mm 5 m/s 748 mmHg 94%
    13:00 +9°C° 0 mm 6 m/s 748 mmHg 93%
    14:00 +9°C° 0.3 mm 6 m/s 748 mmHg 93%
    15:00 +9°C° 0.3 mm 6 m/s 748 mmHg 93%
    16:00 +8°C° 0.3 mm 6 m/s 748 mmHg 93%
    17:00 +8°C° 0.9 mm 6 m/s 749 mmHg 92%
    18:00 +8°C° 0.9 mm 6 m/s 750 mmHg 90%
    19:00 +8°C° 0.9 mm 7 m/s 751 mmHg 89%
    20:00 +6°C° 0 mm 7 m/s 752 mmHg 86%
    21:00 +5°C° 0 mm 7 m/s 753 mmHg 82%
    22:00 +5°C° 0 mm 8 m/s 754 mmHg 79%
    23:00 +4°C° 0 mm 7 m/s 754 mmHg 80%

    15 Décembre, Dimanche

    Heure Température Précipitation Vent Pression Humidité
    00:00 +4°C° 0 mm 6 m/s 755 mmHg 82%
    01:00 +3°C° 0 mm 5 m/s 756 mmHg 83%
    02:00 +3°C° 0 mm 5 m/s 756 mmHg 84%
    03:00 +3°C° 0 mm 5 m/s 757 mmHg 85%
    04:00 +3°C° 0 mm 5 m/s 757 mmHg 85%
    05:00 +3°C° 0 mm 5 m/s 757 mmHg 87%
    06:00 +3°C° 0 mm 5 m/s 758 mmHg 88%
    07:00 +3°C° 0 mm 5 m/s 758 mmHg 89%
    08:00 +5°C° 0 mm 5 m/s 758 mmHg 85%
    09:00 +6°C° 0 mm 5 m/s 759 mmHg 80%
    10:00 +7°C° 0 mm 5 m/s 759 mmHg 76%
    11:00 +8°C° 0 mm 5 m/s 759 mmHg 72%
    12:00 +9°C° 0 mm 6 m/s 759 mmHg 69%
    13:00 +10°C° 0 mm 6 m/s 758 mmHg 66%
    14:00 +9°C° 0 mm 5 m/s 758 mmHg 69%
    15:00 +9°C° 0 mm 5 m/s 759 mmHg 72%
    16:00 +10°C° 0 mm 4 m/s 759 mmHg 74%
    17:00 +8°C° 0 mm 4 m/s 759 mmHg 79%
    18:00 +8°C° 0 mm 4 m/s 760 mmHg 83%
    19:00 +7°C° 0 mm 4 m/s 761 mmHg 87%
    20:00 +6°C° 0 mm 4 m/s 762 mmHg 87%
    21:00 +6°C° 0 mm 4 m/s 762 mmHg 87%
    22:00 +5°C° 0 mm 5 m/s 763 mmHg 87%
    23:00 +3°C° 0 mm 5 m/s 764 mmHg 80%

    16 Décembre, Lundi

    Heure Température Précipitation Vent Pression Humidité
    00:00 +2°C° 0 mm 5 m/s 764 mmHg 73%
    01:00 -1°C° 0 mm 6 m/s 765 mmHg 66%
    02:00 -1°C° 0 mm 6 m/s 766 mmHg 66%
    03:00 -1°C° 0 mm 5 m/s 766 mmHg 66%
    04:00 -2°C° 0 mm 5 m/s 767 mmHg 66%
    05:00 -2°C° 0 mm 5 m/s 768 mmHg 66%
    06:00 -2°C° 0 mm 5 m/s 768 mmHg 65%
    07:00 -2°C° 0 mm 4 m/s 769 mmHg 64%
    08:00 -2°C° 0 mm 4 m/s 770 mmHg 61%
    09:00 -1°C° 0 mm 4 m/s 770 mmHg 58%
    10:00 0°C° 0 mm 4 m/s 771 mmHg 55%
    11:00 +1°C° 0 mm 3 m/s 771 mmHg 52%
    12:00 +3°C° 0 mm 2 m/s 771 mmHg 49%
    13:00 +3°C° 0 mm 2 m/s 770 mmHg 45%
    14:00 +3°C° 0 mm 2 m/s 770 mmHg 46%
    15:00 +3°C° 0 mm 2 m/s 770 mmHg 47%
    16:00 +3°C° 0 mm 2 m/s 769 mmHg 48%
    17:00 +3°C° 0 mm 2 m/s 769 mmHg 50%
    18:00 +4°C° 0 mm 2 m/s 769 mmHg 51%
    19:00 +4°C° 0 mm 2 m/s 769 mmHg 53%
    20:00 +3°C° 0 mm 3 m/s 768 mmHg 56%
    21:00 +3°C° 0 mm 3 m/s 768 mmHg 60%
    22:00 +4°C° 0 mm 4 m/s 767 mmHg 63%
    23:00 +5°C° 0 mm 4 m/s 766 mmHg 68%
    Voir plus